Weather Service Report


660 
ASUS41 KBTV 171530
RWRBTV
VERMONT REGIONAL WEATHER ROUNDUP
NATIONAL WEATHER SERVICE BURLINGTON VT
1000 AM EST TUE JAN 17 2017

NOTE: "FAIR" INDICATES FEW OR NO CLOUDS BELOW 12,000 FEET WITH NO 
SIGNIFICANT WEATHER AND/OR OBSTRUCTIONS TO VISIBILITY.

* THESE REPORTS ARE NOT UNDER NWS QUALITY CONTROL AND/OR DO NOT
  REPORT WEATHER SUCH AS PRECIPITATION AND FOG.

VTZ001>019-171600-
_____VERMONT_____

  
CITY           SKY/WX    TMP DP  RH WIND       PRES   REMARKS
BURLINGTON     PTSUNNY   28  20  71 CALM      30.25F                  
MONTPELIER     CLOUDY    23  18  81 CALM      30.26F                  
MORRISVILLE    CLOUDY    23  18  81 CALM      30.25F                  
ST. JOHNSBURY*   N/A     20  15  81 MISG      30.24F                  
LYNDONVILLE*   CLOUDY    22  17  81 CALM      30.24S                  
MIDDLEBURY*    FAIR      31  11  43 NW5       30.22F WCI  26          
RUTLAND*       SUNNY     29  19  66 CALM      30.21F                  
SPRINGFIELD    SUNNY     23  17  78 CALM      30.25F                  
HIGHGATE*      FAIR      32  23  70 SE5       30.25F WCI  27          
NEWPORT*       CLOUDY    29  22  75 CALM      30.23F                  
BENNINGTON     CLOUDY    31  21  66 N5        30.18F WCI  26          
SUTTON*          N/A     27 N/A N/A MISG        N/A                   
ISLAND POND*     N/A     25 N/A N/A CALM        N/A                   
GALLUP MILLS*    N/A     23 N/A N/A MISG        N/A                   
UNION VILLAGE*   N/A     21 N/A N/A MISG        N/A                   
MT. MANSFIELD*   N/A     21 N/A N/A E3          N/A                   

_____LAKE CHAMPLAIN_____

  
CITY           SKY/WX    TMP DP  RH WIND       PRES   REMARKS
BURTON ISLAND*   N/A     32  27  80 SW1         N/A                   
COLCHESTER RF*   N/A     32  27  80 SE7         N/A  WCI  26          
DIAMOND ISL*     N/A     30  27  86 SE2         N/A                   

$$

NYZ007-026>031-035-052-083-087-171600-
_____NORTHERN NEW YORK_____

  
CITY           SKY/WX    TMP DP  RH WIND       PRES   REMARKS
PLATTSBURGH    CLOUDY    30  25  81 CALM      30.25F                  
SARANAC LAKE   CLOUDY    28  20  71 NE5       30.13F WCI  23          
MASSENA        PTSUNNY   30  25  81 E8        30.22F WCI  22          
OGDENSBURG*    SUNNY     32  28  86 E6        30.16F WCI  26          
POTSDAM*       SUNNY     34  27  75 E6        30.16F WCI  29          
STARK FALLS*     N/A     27 N/A N/A SE8         N/A  WCI  18          
WATERTOWN      CLOUDY    31  25  78 NE5       30.13F WCI  26          
FT DRUM        SUNNY     30  17  58 E12       30.11F WCI  20          
ALBANY         PTSUNNY   26  21  81 N3        30.24R                  
GLENS FALLS    CLOUDY    29  20  69 NE6       30.23F WCI  23          

$$
NHZ002-005-011-171600-
_____NEW HAMPSHIRE_____

  
CITY           SKY/WX    TMP DP  RH WIND       PRES   REMARKS
LEBANON        SUNNY     23  18  81 CALM      30.25F                  
KEENE          SUNNY     30  24  78 CALM      30.24F                  
MT WASHINGTON  MOSUNNY   23   1  39 NW28        N/A  WCI   6          
PLYMOUTH       FAIR      31  19  61 CALM      30.23F                  
WHITEFIELD     CLOUDY    22  17  81 CALM      30.23S                  

$$

_____REGIONAL QUEBEC LOCATIONS_____

  
CITY           SKY/WX    TMP DP  RH WIND       PRES   REMARKS
MONTREAL       CLOUDY    30  21  69 NE14G21   30.26S WCI  20          
QUEBEC CITY    MOSUNNY   23  12  63 NE8       30.32R WCI  14          
SHERBROOKE     CLOUDY    28  18  64 NE7       30.23S WCI  21          

_____REGIONAL ONTARIO LOCATIONS_____

  
CITY           SKY/WX    TMP DP  RH WIND       PRES   REMARKS
OTTAWA         PTSUNNY   25  19  80 E10       30.19F WCI  15          

______KEY______
VSB  - VISIBILITY IN MILES
WCI  - WIND CHILL INDEX
HX   - HEAT INDEX
$$
NNNN
  

Return to Home page


Western Regional Climate Center, wrcc@dri.edu